Flag for U.S.A. Weather past 2 weeks in Antioch, California, U.S.A.

Now
53 °F

Clear.


Feels Like: 48 °F
Forecast: 49 / 76 °F
Wind: 16 mph from South

Location: Buchanan Field

Current Time: May 5, 2015 at 7:17:55 AM

Latest Report: May 5, 2015 at 6:53 AM


Visibility: 10 mi

Pressure: 29.88 "Hg

Humidity: 74%

Dew point: 45 °F

Location of AntiochLocation

Historic Weather in Antioch — Graph

°F

Antioch temperature yesterday

Maximum temperature yesterday: 68 °F (at 2:53 PM)
Minimum temperature yesterday: 52 °F (at 5:53 AM)
Average temperature yesterday: 58 °F

Past Weeks' High & Low Weather Summary

 TemperatureHumidityPressure
High90 °F (Apr 30, 3:53 PM)90% (Apr 24, 11:53 PM)30.11 "Hg (Apr 24, 11:53 PM)
Low51 °F (Apr 26, 5:53 AM)12% (Apr 30, 4:53 PM)29.73 "Hg (Apr 30, 6:53 PM)
Average63 °F59%29.87 "Hg
* Reported Apr 20 5:53 AM — May 5 5:53 AM, Antioch, Weather by CustomWeather, © 2015

Note: Actual official high and low records may vary slightly from our data, if they occured in-between our weather recording intervals... More about our weather records

Advertising

Antioch weather history for previous 24 hours

 ConditionsComfort  
Time TempWeatherWind HumidityBarometerVisibility
5:53 AM
Tue, May 5
53 °FClear.18 mph74%29.87 "Hg10 mi
4:53 AM53 °FClear.22 mph74%29.88 "Hg10 mi
3:53 AM53 °FClear.18 mph74%29.87 "Hg10 mi
2:53 AM54 °FClear.16 mph74%29.87 "Hg10 mi
1:53 AM54 °FClear.21 mph72%29.88 "Hg10 mi
12:53 AM54 °FClear.18 mph72%29.88 "Hg10 mi
11:53 PM
Mon, May 4
53 °FClear.17 mph77%29.88 "Hg10 mi
10:53 PM54 °FClear.24 mph72%29.89 "Hg10 mi
9:53 PM54 °FClear.17 mph72%29.89 "Hg10 mi
8:53 PM54 °FSunny.17 mph72%29.89 "Hg10 mi
7:53 PM56 °FSunny.16 mph67%29.88 "Hg10 mi
6:53 PM59 °FPassing clouds.15 mph62%29.87 "Hg10 mi
5:53 PM62 °FSunny.17 mph56%29.87 "Hg10 mi
4:53 PM65 °FSunny.18 mph51%29.87 "Hg10 mi
3:53 PM68 °FSunny.18 mph45%29.87 "Hg10 mi
2:53 PM68 °FSunny.15 mph45%29.88 "Hg10 mi
1:53 PM67 °FSunny.14 mph47%29.90 "Hg10 mi
12:53 PM65 °FSunny.16 mph52%29.91 "Hg10 mi
11:53 AM63 °FSunny.15 mph54%29.92 "Hg10 mi
10:53 AM62 °FSunny.14 mph56%29.92 "Hg10 mi
9:53 AM59 °FPassing clouds.13 mph60%29.92 "Hg10 mi
8:53 AM56 °FOvercast.13 mph70%29.92 "Hg10 mi
7:53 AM54 °FOvercast.12 mph72%29.91 "Hg10 mi
Weather by CustomWeather, © 2015

See weather overviewHow to use our weather pages